Overview Statistics Trail Chart Weather Telemetry Raw packets
 

This is the latest recevied weather packets stored in our database for station/object OE6JUE. If no packets are shown the sender has not sent any weather packets the latest 10 day(s).

<< 21 22 23 24 25 26 27 >>
Time Temp. Humidity Pressure Rain* Wind** Luminosity Snow
1788542337 26.67° C 47% 1016.5 hPa 0 mm - - -
1788542036 27.22° C 45% 1016.6 hPa 0 mm - - -
1788541736 27.78° C 41% 1016.6 hPa 0 mm - - -
1788541436 27.78° C 40% 1016.5 hPa 0 mm - - -
1788541136 28.33° C 39% 1016.6 hPa 0 mm - - -
1788540836 28.33° C 39% 1016.6 hPa 0 mm - - -
1788540536 28.33° C 39% 1016.7 hPa 0 mm - - -
1788540236 28.33° C 37% 1016.7 hPa 0 mm - - -
1788539936 28.33° C 36% 1016.7 hPa 0 mm - - -
1788539636 28.89° C 36% 1016.6 hPa 0 mm - - -
1788539337 28.89° C 34% 1016.8 hPa 0 mm - - -
1788539036 29.44° C 34% 1016.8 hPa 0 mm - - -
1788538737 30° C 32% 1016.8 hPa 0 mm - - -
1788538436 30° C 32% 1016.8 hPa 0 mm - - -
1788538136 30.56° C 31% 1016.9 hPa 0 mm - - -
1788537837 31.11° C 31% 1017.1 hPa 0 mm - - -
1788537536 31.67° C 30% 1016.9 hPa 0 mm - - -
1788537236 33.33° C 24% 1017.1 hPa 0 mm - - -
1788536935 33.89° C 24% 1017.1 hPa 0 mm - - -
1788536636 33.89° C 23% 1016.9 hPa 0 mm - - -
1788536336 34.44° C 23% 1017 hPa 0 mm - - -
1788536036 34.44° C 23% 1017.1 hPa 0 mm - - -
1788535735 34.44° C 23% 1017.1 hPa 0 mm - - -
1788535436 34.44° C 26% 1017.1 hPa 0 mm - - -
1788535136 34.44° C 26% 1017.1 hPa 0 mm - - -

* Rain latest hour (hover to see other rain measurements)
** Current wind speed in m/s (hover to see current wind gust speed)